Regional Weather Roundup
Issued by NWS Kansas City/Pleasant Hill, MO

Home | Current Version | Previous Version | Graphics & Text | Print | Product List | Glossary Off
Versions: 1 2 3 4 5 6 7 8 9 10 11 12 13 14 15 16 17 18 19 20 21 22 23 24 25 26 27 28 29 30 31 32 33 34 35 36 37 38 39 40 41 42 43 44 45 46 47 48 49 50

000
ASUS43 KEAX 232011
RWREAX

WEATHER ROUNDUP FOR EASTERN KANSAS AND NORTHWEST MISSOURI
NATIONAL WEATHER SERVICE KANSAS CITY/PLEASANT HILL MO
300 PM CDT THU OCT 23 2014

KSZ040-057-103>105-MOZ028-029-037-043-232100-
...KANSAS CITY METROPOLITAN AREA...

CITY           SKY/WX    TMP DP  RH WIND       PRES   REMARKS
K.C. INTL      CLOUDY    63  61  93 SW10      30.06F
K.C. DOWNTOWN  CLOUDY    65  60  84 SW7       30.06S
LEES SUMMIT    CLOUDY    64  58  80 SW9       30.07F
OLATHE - IXD   CLOUDY    64  60  87 SW12      30.07F
OLATHE - OJC   CLOUDY    64  60  87 SW8       30.06F
LAWRENCE       CLOUDY    64  60  87 S9        30.06F FOG

$$

MOZ001>008-011>017-020>025-030>033-038>040-044>046-053-054-232100-
...NORTHERN AND CENTRAL MISSOURI...

CITY           SKY/WX    TMP DP  RH WIND       PRES   REMARKS
ST. JOSEPH     PTSUNNY   72  60  66 SW8       30.04F
MOSBY          CLOUDY    63  61  94 CALM      30.06F FOG
WHITEMAN AFB   PTSUNNY   66  59  76 S12       30.06F
CLINTON        CLOUDY    64  57  77 S8        30.09F HAZE
SEDALIA        PTSUNNY   67  56  67 SW13      30.09F
WARSAW         NOT AVBL
MARSHALL       PTSUNNY   70  59  68 SW9       30.07F
CHILLICOTHE      N/A     65  58  78 S6        30.06F
MOBERLY        CLOUDY    66  52  59 S5        30.07F
KIRKSVILLE     CLOUDY    65  57  75 SW8       30.05F

$$

MOZ041-047>049-056>058-063>065-088>090-097-232100-
...EASTERN AND SOUTHERN MISSOURI...

CITY           SKY/WX    TMP DP  RH WIND       PRES   REMARKS
ST. LOUIS INTL PTSUNNY   64  45  49 SE6       30.12F
SPIRIT OF STL  CLOUDY    64  45  49 S8        30.10F
COLUMBIA       CLOUDY    61  51  70 S9        30.09F
JEFFERSON CITY PTSUNNY   61  48  62 S9        30.10F
HANNIBAL       CLOUDY    59  52  77 S10       30.08F
ROLLA          CLOUDY    60  46  59 SW8       30.11F
LEBANON        MOSUNNY   61  50  67 SW5       30.13F
OSAGE BEACH    CLOUDY    63  50  63 SW5       30.11F
SPRINGFIELD    LGT RAIN  61  56  83 S6        30.12F
BRANSON        CLOUDY    66  54  63 W3        30.15F
JOPLIN         PTSUNNY   62  57  83 S10       30.11F
WEST PLAINS    CLOUDY    57  45  64 S6        30.16F

$$

IAZ060-094-KSZ022-034>040-054-083-096-NEZ052-066-093-232100-
...KANSAS...SOUTHEAST NEBRASKA AND IOWA...

CITY           SKY/WX    TMP DP  RH WIND       PRES   REMARKS
TOPEKA         MOSUNNY   70  62  76 SE3       30.05F
MANHATTAN      SUNNY     75  56  51 S5        30.03F
OMAHA          SUNNY     70  53  54 E3        30.02F
LINCOLN        SUNNY     70  51  51 CALM      30.04F
FALLS CITY     SUNNY     73  55  53 VRB5      30.02F
LAMONI         PTSUNNY   63  59  87 W7        30.04F
DES MOINES     MOSUNNY   70  57  63 SW5       30.01F

$$




USA.gov is the U.S. government's official web portal to all federal, state and local government web resources and services.